User: anonymous   Login
Location: Petruro
(41.0333°N, 14.7833°E)
Time: 17:27:06
(UTC+00:00)
Language:

FALCON 9 DEB - Orbit

View from above orbital plane
View from above orbital plane
View from above satellite
View from above satellite

Ground track
Ground track

The orbit data is extracted from the following two-line orbital elements,

1 46086U 20055BM  21270.04795560  .00031653  00000-0  26627-3 0  9998
2 46086  53.0066  54.9108 0010533 210.4503 149.5902 15.69537054 69628
Epoch (UTC): 27 September 2021 01:09:03
Eccentricity: 0.0010533
inclination: 53.0066°
perigee height: 353 km
apogee height: 367 km
right ascension of ascending node: 54.9108°
argument of perigee: 210.4503°
revolutions per day: 15.69537054
mean anomaly at epoch: 149.5902°
orbit number at epoch: 6962

The dashed part of the orbit path shows where the satellite is in the earth's shadow,  

DLR